Theta_e
330 329 324 323 318 315 312 311 313 312 311 311 312 314 315 313 313 312 313 310 310 313
318 316 313 312 312 310 309 308 307 305 304 304 304 306 305 304 306 306 306 305 306 306
309 308 307 306 304 304 303 304 303 302 302 301 302 303 303 301 303 302 300 299 299 298
302 303 303 303 303 303 302 301 299 299 297 296 296 297 296 296 297 296 296 295 295 293
300 299 298 297 296 296 296 296 296 296 295 294 293 293 293 292 292 292 291 291 291 290
298 298 295 294 294 293 292 292 293 292 291 291 291 290 290 290 290 289 289 288 288 287
293 293 292 291 291 290 290 289 289 289 289 289 289 289 288 288 287 287 287 287 287 286
289 289 288 287 287 287 286 286 286 287 287 287 287 287 286 286 285 285 285 285 285 285
288 287 286 285 285 284 284 284 284 284 284 284 286 287 287 286 284 284 283 282 283 284
284 284 283 283 283 282 282 282 282 282 283 282 284 287 286 286 283 283 282 282 282 282
283 282 282 281 281 281 281 281 280 280 281 282 284 286 286 285 282 282 282 281 281 281
282 281 280 280 279 280 280 280 280 280 280 280 282 285 285 283 282 281 281 281 281 280
281 280 279 279 279 280 280 279 280 280 280 281 281 284 284 282 282 280 280 280 280 282
280 279 279 279 279 278 278 278 278 278 278 279 280 281 283 283 280 280 280 280 279 279
Wind_Speed
11 6 3 7 8 6 6 6 7 8 8 7 5 6 7 1 6 7 6 6 5 4
6 9 9 11 10 9 9 7 7 8 9 8 7 8 3 4 6 6 4 6 5 5
9 9 10 10 11 10 10 9 11 6 8 10 4 7 4 5 4 5 3 4 5 4
11 11 12 10 9 8 9 7 8 6 10 12 8 7 5 6 6 6 5 5 6 6
13 13 12 11 10 9 8 9 10 5 7 12 9 7 7 5 6 6 6 6 6 6
20 16 14 14 12 11 8 9 9 9 7 9 8 7 6 6 5 6 5 5 5 5
12 11 12 11 11 14 11 7 7 9 9 8 7 7 5 5 6 6 6 4 5 6
12 13 12 12 13 11 10 9 7 9 8 7 6 5 4 5 6 6 6 5 4 5
12 12 11 12 11 12 11 10 9 7 8 7 6 9 9 6 5 6 5 4 5 5
11 11 9 11 10 11 7 9 10 8 7 8 7 8 9 8 5 5 5 5 4 3
10 11 10 9 8 11 5 9 8 8 7 6 6 8 8 8 5 5 4 4 6 5
6 9 9 9 8 6 8 7 7 6 7 6 4 10 9 6 5 5 4 3 4 4
7 6 7 7 8 4 7 8 6 7 6 7 5 9 10 6 3 3 3 3 4 7
5 7 6 5 4 6 7 7 5 7 5 5 5 6 7 6 4 2 1 2 1 3
Wind_Direction
202 194 136 119 112 97 97 97 96 85 76 59 52 57 46 93 76 63 54 45 36 39
115 117 121 111 110 116 113 115 95 110 92 86 68 53 84 58 56 74 68 37 34 74
97 100 103 109 106 108 108 117 117 77 93 96 54 94 49 60 50 83 48 64 60 51
106 100 98 96 101 110 104 104 75 116 103 96 80 54 78 50 55 57 52 38 55 39
117 111 104 98 85 79 81 95 95 74 103 84 82 61 65 77 62 55 50 37 47 42
130 132 131 124 117 97 105 96 106 118 95 91 84 88 77 76 78 79 67 53 51 39
110 113 114 105 117 113 113 108 105 90 82 78 77 77 80 91 82 74 69 49 55 54
103 107 113 115 106 104 96 81 80 86 82 80 77 71 59 71 79 76 75 63 56 79
110 109 108 102 104 101 103 112 103 94 93 86 71 71 68 69 81 76 75 65 47 68
105 106 108 111 97 99 117 121 107 103 101 86 79 66 74 72 78 82 67 65 72 59
106 102 98 96 112 105 142 99 105 105 93 87 87 79 74 69 82 90 82 62 62 55
105 118 114 116 123 113 107 106 95 99 109 103 88 73 62 68 62 70 72 66 79 72
86 107 112 111 119 120 101 99 106 101 97 111 85 76 61 76 82 86 69 60 66 33
100 104 107 102 98 98 103 102 108 104 100 99 95 73 70 72 60 74 127 82 55 38